Location: Dattensoll
(49.9928°N, 9.8954°E)
Time: 20:13:10
(UTC+00:00)

ISS - Pass Details

Date: 27 January 2026
Orbit: 414 x 429 km, 51.6° (Epoch: 6 February)

Event Time Altitude Azimuth Distance (km) Brightness Sun altitude
Rises 16:10:05 0° 284° (WNW) 2,360 0.9 -1.4°
Reaches altitude 10° 16:12:11 10° 285° (WNW) 1,498 -0.1 -1.7°
Maximum altitude 16:15:33 79° 13° (NNE) 432 -3.7 -2.2°
Drops below altitude 10° 16:18:55 10° 100° (E) 1,503 -1.4 -2.7°
Enters shadow 16:21:28 -2° 102° (ESE) 2,548 -0.3 -3.0°
Exits shadow 16:54:22 -71° 108° (ESE) 12,535 3.6 -7.9°
Sets 17:46:50 0° 287° (WNW) 2,420 1.3 -16.1°
